Retour au catalogue

FENGYUN 1C DEB

ActifSSO
NORAD 32459·DEBRIS·🇨🇳 China

Lancé May 10, 1999 depuis Taiyuan Satellite Launch Center

Loading…

Prochains Passages (prochaines 24 heures)

TLE

FraisSource: Space-Track

Époque: Sep 14, 2026, 06:10 UTC

1 32459U 99025DBX 26257.25748530  .00001572  00000-0  36146-3 0  9992
2 32459  98.2935 269.6930 0211540  71.5881 290.8183 14.43965121985255

Suivez FENGYUN 1C DEB en temps réel avec AllMySat

Download on the App Store